Location: Dodgeville
(42.9600°N, 90.1300°W)
Time: 15:30:16
(UTC-05:00)

Amateur Radio Satellites - All Passes

Search period start: 30 March 2017 15:00
Search period end: 31 March 2017 15:00
Location: Dodgeville, 42.9600°N, 90.1300°W

Satellite Date Start Highest point End Downlink Frequencies (MHz)
Time Altitude Azimuth
Gurwin Techsat 1B 30 Mar 15:00:55 15:05:30 29° 265° (W) 15:10:08 435.225
DX 1 30 Mar 15:22:45 15:25:22 16° 298° (WNW) 15:28:00 434.975-435.025
SO-50 30 Mar 15:29:57 15:33:58 28° 315° (NW) 15:37:57 436.795
AO-7 30 Mar 15:39:49 15:48:10 85° 251° (WSW) 15:56:32 .
MOZHAYETS 4 30 Mar 15:41:43 15:45:17 22° 93° (E) 15:48:49
RS-15 30 Mar 15:54:08 16:04:37 31° 338° (NNW) 16:15:13 29.354- 29.394
UKube-1 30 Mar 15:55:15 15:56:06 10° 301° (WNW) 15:56:57 .
BEESAT 30 Mar 16:03:46 16:08:33 84° 102° (ESE) 16:13:18 436.000
ITAMSAT 1 30 Mar 16:07:16 16:12:09 40° 262° (W) 16:17:03 435.822/435.867
O/OREOS (USA 219) 30 Mar 16:16:53 16:21:14 50° 108° (ESE) 16:25:41 437.305
PCSat 30 Mar 16:21:05 16:24:00 14° 36° (NE) 16:26:54 145.827
ITUPSAT 1 30 Mar 16:23:09 16:27:52 65° 287° (WNW) 16:32:34 437.325
KKS-1 30 Mar 16:28:00 16:30:17 14° 91° (E) 16:32:32 437.445
CUBESAT XI-V 30 Mar 16:46:14 16:49:28 18° 92° (E) 16:52:41 437.345
CUTE-I 30 Mar 16:52:39 16:55:18 14° 57° (ENE) 16:57:57 437.470
STARS 30 Mar 16:52:47 16:53:31 10° 89° (E) 16:54:15 437.465
YUBILEINY 30 Mar 16:59:04 17:04:37 18° 59° (ENE) 17:10:11 435.215
DOVE 4 30 Mar 17:03:00 17:06:34 21° 63° (ENE) 17:10:18 437.250
XW-2F 30 Mar 17:06:51 17:07:49 11° 63° (ENE) 17:08:46 145.980 - 146.000
LilacSat-2 30 Mar 17:15:13 17:17:25 15° 65° (ENE) 17:19:37 437.200
NUDT-PHONESAT 30 Mar 17:18:05 17:19:35 12° 64° (ENE) 17:21:04 437.300
MOZHAYETS 4 30 Mar 17:18:20 17:22:33 37° 290° (WNW) 17:26:44
KAITUO 1B 30 Mar 17:30:14 17:32:39 17° 66° (ENE) 17:35:05 145.475/437.950
XW-2D 30 Mar 17:33:28 17:36:29 23° 69° (ENE) 17:39:31 145.860 - 145.880
AO-7 30 Mar 17:36:55 17:42:02 17° 270° (W) 17:47:12 .
XW-2B 30 Mar 17:39:21 17:42:31 26° 70° (ENE) 17:45:42 145.730 - 145.750
BEESAT 30 Mar 17:43:44 17:45:38 12° 301° (WNW) 17:47:32 436.000
XW-2C 30 Mar 17:49:25 17:52:52 34° 71° (ENE) 17:56:19 145.795 - 145.815
O/OREOS (USA 219) 30 Mar 17:57:40 18:00:58 19° 307° (NW) 18:04:17 437.305
KKS-1 30 Mar 18:02:47 18:07:13 60° 287° (WNW) 18:11:36 437.445
PCSat 30 Mar 18:03:02 18:08:28 67° 57° (ENE) 18:13:51 145.827
RS-15 30 Mar 18:12:16 18:22:25 28° 13° (NNE) 18:32:23 29.354- 29.394
CUBESAT XI-V 30 Mar 18:22:35 18:27:04 47° 288° (WNW) 18:31:33 437.345
ISS 30 Mar 18:25:16 18:25:35 10° 129° (SE) 18:25:55 437.550
STARS 30 Mar 18:25:57 18:30:23 76° 285° (WNW) 18:34:46 437.465
CUTE-I 30 Mar 18:29:11 18:34:34 90° 256° (WSW) 18:40:00 437.470
HO-68 30 Mar 18:37:31 18:43:52 36° 62° (ENE) 18:50:15 435.675
XW-2F 30 Mar 18:37:43 18:41:27 61° 259° (W) 18:45:11 145.980 - 146.000
DOVE 4 30 Mar 18:39:09 18:43:49 51° 262° (W) 18:48:47 437.250
CUBEBUG 2 30 Mar 18:46:14 18:48:03 12° 61° (ENE) 18:49:51 437.445
LilacSat-2 30 Mar 18:47:44 18:51:22 41° 261° (W) 18:54:59 437.200
NUDT-PHONESAT 30 Mar 18:49:25 18:53:04 51° 260° (W) 18:56:43 437.300
M-CUBED/EXP-1 PRIME 30 Mar 18:49:36 18:53:09 21° 98° (E) 18:56:40 437.505
YUBILEINY 30 Mar 18:54:10 19:02:55 82° 81° (E) 19:11:40 435.215
KAITUO 1B 30 Mar 19:02:58 19:06:25 35° 262° (W) 19:09:52 145.475/437.950
AAUSAT CUBESAT 2 30 Mar 19:06:31 19:07:39 11° 61° (ENE) 19:08:48 437.432
XW-2D 30 Mar 19:07:24 19:10:34 25° 264° (W) 19:13:45 145.860 - 145.880
XW-2B 30 Mar 19:13:39 19:16:41 22° 265° (W) 19:19:42 145.730 - 145.750
XW-2A 30 Mar 19:21:16 19:24:41 59° 74° (ENE) 19:28:04 145.665 - 145.685
XW-2C 30 Mar 19:24:40 19:27:10 17° 267° (W) 19:29:41 145.795 - 145.815
STRAND 1 30 Mar 19:29:20 19:33:09 21° 93° (E) 19:36:57 437.568
AO-85 30 Mar 19:31:10 19:34:44 24° 115° (ESE) 19:38:08 145.980
SEEDS 30 Mar 19:32:55 19:36:50 42° 72° (ENE) 19:40:46 437.485
Tancredo 1 30 Mar 19:36:34 19:39:40 58° 143° (SE) 19:42:47 437.200
UWE-3 30 Mar 19:36:53 19:40:31 23° 67° (ENE) 19:44:08 435.000/436.395/437.385
PCSat 30 Mar 19:47:43 19:51:17 18° 255° (WSW) 19:54:51 145.827
CUTE 1.7 + AOD 2 30 Mar 19:48:29 19:52:41 83° 256° (WSW) 19:56:55 437.475
Oscar 11 30 Mar 19:52:10 19:54:34 15° 63° (ENE) 19:56:58 .
ISS 30 Mar 19:58:17 20:01:32 83° 146° (SSE) 20:04:49 437.550
ZACube-1 30 Mar 20:06:46 20:10:33 27° 68° (ENE) 20:14:18 437.345
CUTE-I 30 Mar 20:13:37 20:15:20 11° 272° (W) 20:17:04 437.470
CUBEBUG 2 30 Mar 20:19:14 20:23:59 84° 256° (WSW) 20:28:42 437.445
M-CUBED/EXP-1 PRIME 30 Mar 20:23:15 20:27:43 46° 294° (WNW) 20:32:10 437.505
HO-68 30 Mar 20:24:35 20:31:25 47° 260° (W) 20:38:17 435.675
RS-15 30 Mar 20:26:22 20:38:31 56° 45° (NE) 20:50:07 29.354- 29.394
AO-73 30 Mar 20:31:47 20:36:02 44° 72° (ENE) 20:40:15 145.935
AAUSAT CUBESAT 2 30 Mar 20:38:27 20:42:31 71° 258° (WSW) 20:46:39 437.432
BEESAT 3 30 Mar 20:42:42 20:44:39 13° 109° (ESE) 20:46:39 437.485
YUBILEINY 30 Mar 20:52:38 20:58:37 21° 282° (WNW) 21:04:37 435.215
STRAND 1 30 Mar 21:07:40 21:12:35 49° 290° (WNW) 21:17:27 437.568
SEEDS 30 Mar 21:10:04 21:12:44 16° 268° (W) 21:15:24 437.485
BEESAT 2 30 Mar 21:10:44 21:11:02 10° 108° (ESE) 21:11:21 435.950
AO-85 30 Mar 21:10:57 21:14:59 36° 310° (NW) 21:18:48 145.980
UWE-3 30 Mar 21:12:27 21:16:46 38° 263° (W) 21:21:01 435.000/436.395/437.385
Tancredo 1 30 Mar 21:13:13 21:15:57 26° 341° (NNW) 21:18:41 437.200
DELFI C3 30 Mar 21:15:52 21:19:21 32° 70° (ENE) 21:22:53 145.870
Oscar 11 30 Mar 21:26:01 21:30:14 56° 260° (W) 21:34:30 .
ISS 30 Mar 21:35:35 21:38:18 24° 344° (NNW) 21:41:03 437.550
PRISM 30 Mar 21:40:21 21:42:50 15° 92° (E) 21:45:17 437.425
ZACube-1 30 Mar 21:42:45 21:46:44 30° 264° (W) 21:50:40 437.345
TIGRISAT 30 Mar 22:09:12 22:11:52 16° 91° (E) 22:14:28 435.000
AO-73 30 Mar 22:09:20 22:12:27 18° 268° (W) 22:15:32 145.935
BEESAT 3 30 Mar 22:17:54 22:21:46 56° 306° (NW) 22:25:43 437.485
SO-50 30 Mar 22:19:18 22:23:39 46° 51° (NE) 22:27:58 436.795
UNISAT 6 30 Mar 22:20:16 22:23:42 22° 94° (E) 22:27:05 437.425
RS-15 30 Mar 22:39:25 22:50:57 51° 250° (WSW) 23:02:00 29.354- 29.394
BEESAT 2 30 Mar 22:44:13 22:48:10 75° 304° (NW) 22:52:12 435.950
Tancredo 1 30 Mar 22:50:38 22:52:48 17° 1° (N) 22:54:58 437.200
DELFI C3 30 Mar 22:51:20 22:54:12 19° 267° (W) 22:57:06 145.870
ESTCUBE 1 30 Mar 22:53:30 22:57:23 30° 68° (ENE) 23:01:16 437.505/2401.250
LO-87 30 Mar 22:56:52 23:00:23 55° 75° (ENE) 23:03:58 145.935 - 145.965
ISS 30 Mar 23:13:14 23:15:36 18° 5° (N) 23:17:57 437.550
PRISM 30 Mar 23:14:21 23:18:21 47° 288° (WNW) 23:22:21 437.425
FO-29 30 Mar 23:14:54 23:20:31 48° 98° (E) 23:25:37 435.910
AIST 2D 30 Mar 23:22:12 23:23:31 12° 91° (E) 23:24:49 435.315
50 SAT 30 Mar 23:30:33 23:31:05 10° 63° (ENE) 23:31:35 437.505
TIGRISAT 30 Mar 23:44:38 23:48:51 47° 288° (WNW) 23:52:57 435.000
VELOX 1 30 Mar 23:44:43 23:48:38 32° 68° (ENE) 23:52:35 145.980
SPROUT 30 Mar 23:52:11 23:56:01 32° 69° (ENE) 23:59:52 437.525
POLYITAN 1 30 Mar 23:56:08 23:59:11 19° 93° (E) 00:02:14 437.675
UNISAT 6 30 Mar 23:56:32 00:00:29 33° 291° (WNW) 00:04:21 437.425
SO-50 31 Mar 00:00:25 00:03:48 21° 248° (WSW) 00:07:10 436.795
QB50P2 31 Mar 00:00:45 00:04:10 23° 94° (E) 00:07:33 145.880/145.840
DUCHIFAT 1 31 Mar 00:05:30 00:08:37 20° 93° (E) 00:11:42 145.980
BEESAT 2 31 Mar 00:25:11 00:26:40 12° 324° (NW) 00:28:07 435.950
Tancredo 1 31 Mar 00:26:47 00:29:38 29° 21° (NNE) 00:32:28 437.200
ESTCUBE 1 31 Mar 00:30:21 00:34:09 27° 265° (W) 00:37:59 437.505/2401.250
DX 1 31 Mar 00:41:21 00:45:34 53° 72° (ENE) 00:49:51 434.975-435.025
O/OREOS (USA 219) 31 Mar 00:47:53 00:50:31 15° 50° (NE) 00:53:07 437.305
ISS 31 Mar 00:49:37 00:52:43 37° 25° (NNE) 00:55:49 437.550
NANOSAT C BR1 31 Mar 00:53:27 00:57:41 77° 103° (ESE) 01:01:52 145.865
AIST 2D 31 Mar 00:53:39 00:56:57 40° 287° (WNW) 01:00:13 435.315
50 SAT 31 Mar 01:00:16 01:03:38 52° 259° (W) 01:07:02 437.505
FO-29 31 Mar 01:00:39 01:05:13 24° 299° (WNW) 01:09:28 435.910
EO-79 31 Mar 01:01:13 01:05:29 80° 283° (WNW) 01:09:41 145.935-145.965
UKube-1 31 Mar 01:11:16 01:15:35 79° 74° (ENE) 01:19:56 .
VELOX 1 31 Mar 01:21:28 01:25:05 25° 265° (W) 01:28:46 145.980
SPROUT 31 Mar 01:28:29 01:31:57 23° 266° (W) 01:35:26 437.525
POLYITAN 1 31 Mar 01:31:13 01:35:07 37° 289° (WNW) 01:38:59 437.675
BEESAT 31 Mar 01:36:05 01:38:23 14° 60° (ENE) 01:40:41 436.000
BUGSAT 1 31 Mar 01:36:11 01:40:20 68° 102° (ESE) 01:44:24 437.445
QB50P2 31 Mar 01:36:14 01:39:58 31° 291° (WNW) 01:43:41 145.880/145.840
Gurwin Techsat 1B 31 Mar 01:37:32 01:39:58 13° 89° (E) 01:42:23 435.225
DUCHIFAT 1 31 Mar 01:40:33 01:44:24 35° 290° (WNW) 01:48:12 145.980
ITUPSAT 1 31 Mar 01:54:25 01:57:49 20° 63° (ENE) 02:01:14 437.325
Tancredo 1 31 Mar 02:02:45 02:05:50 46° 218° (SW) 02:08:53 437.200
DX 1 31 Mar 02:19:37 02:22:05 15° 269° (W) 02:24:32 434.975-435.025
Oscar 19 31 Mar 02:20:44 02:25:51 58° 101° (E) 02:30:57 437.125/150
O/OREOS (USA 219) 31 Mar 02:25:51 02:30:28 73° 250° (WSW) 02:35:02 437.305
ISS 31 Mar 02:26:09 02:29:10 33° 222° (SW) 02:32:09 437.550
NANOSAT C BR1 31 Mar 02:31:40 02:32:46 11° 300° (WNW) 02:33:51 145.865
MOZHAYETS 4 31 Mar 02:44:26 02:48:07 24° 66° (ENE) 02:51:47
BEESAT 31 Mar 03:10:45 03:15:32 77° 258° (WSW) 03:20:20 436.000
BUGSAT 1 31 Mar 03:13:36 03:15:06 12° 299° (WNW) 03:16:37 437.445
Gurwin Techsat 1B 31 Mar 03:15:11 03:20:32 81° 285° (WNW) 03:25:51 435.225
KKS-1 31 Mar 03:26:58 03:29:36 16° 62° (ENE) 03:32:15 437.445
ITUPSAT 1 31 Mar 03:30:38 03:35:16 50° 260° (W) 03:39:57 437.325
AO-7 31 Mar 03:41:02 03:48:06 30° 95° (E) 03:55:07 .
STARS 31 Mar 03:49:55 03:51:37 12° 60° (ENE) 03:53:20 437.465
CUBESAT XI-V 31 Mar 03:50:32 03:53:53 20° 65° (ENE) 03:57:14 437.345
AO-85 31 Mar 04:00:51 04:04:12 26° 47° (NE) 04:07:37 145.980
Oscar 19 31 Mar 04:01:04 04:04:44 20° 298° (WNW) 04:08:23 437.125/150
ITAMSAT 1 31 Mar 04:18:42 04:23:53 68° 102° (ESE) 04:29:02 435.822/435.867
MOZHAYETS 4 31 Mar 04:20:53 04:25:06 35° 263° (W) 04:29:19
BEESAT 3 31 Mar 04:57:20 04:59:44 15° 39° (NE) 05:02:06 437.485
Gurwin Techsat 1B 31 Mar 04:57:38 04:59:36 12° 304° (WNW) 05:01:34 435.225
KKS-1 31 Mar 05:01:17 05:05:41 58° 259° (W) 05:10:08 437.445
STARS 31 Mar 05:22:54 05:27:19 77° 256° (WSW) 05:31:48 437.465
BEESAT 2 31 Mar 05:24:49 05:26:42 13° 37° (NE) 05:28:34 435.950
CUBESAT XI-V 31 Mar 05:26:34 05:30:56 44° 262° (W) 05:35:21 437.345
AO-7 31 Mar 05:33:11 05:41:20 63° 294° (WNW) 05:49:28 .
M-CUBED/EXP-1 PRIME 31 Mar 05:36:14 05:39:29 26° 61° (ENE) 05:42:59 437.505
AO-85 31 Mar 05:41:06 05:44:34 30° 244° (WSW) 05:48:09 145.980
NO-84 31 Mar 05:57:38 06:00:34 89° 117° (ESE) 06:03:25 435.350 FM
ITAMSAT 1 31 Mar 05:59:29 06:02:48 17° 300° (WNW) 06:06:06 435.822/435.867
YUBILEINY 31 Mar 06:03:19 06:08:49 19° 77° (ENE) 06:14:17 435.215
XW-2F 31 Mar 06:10:40 06:12:15 12° 91° (E) 06:13:49 145.980 - 146.000
NUDT-PHONESAT 31 Mar 06:20:27 06:22:15 13° 91° (E) 06:24:02 437.300
LilacSat-2 31 Mar 06:20:37 06:23:15 18° 93° (E) 06:25:53 437.200
KAITUO 1B 31 Mar 06:33:39 06:36:22 19° 94° (E) 06:39:05 145.475/437.950
BEESAT 3 31 Mar 06:33:47 06:37:49 76° 239° (WSW) 06:41:48 437.485
DOVE 4 31 Mar 06:36:54 06:42:00 45° 97° (E) 06:46:55 437.250
XW-2D 31 Mar 06:38:34 06:41:52 28° 96° (E) 06:45:07 145.860 - 145.880
XW-2B 31 Mar 06:44:34 06:47:58 32° 97° (E) 06:51:21 145.730 - 145.750
CUTE-I 31 Mar 06:45:39 06:50:29 34° 96° (E) 06:55:16 437.470
STRAND 1 31 Mar 06:45:45 06:50:20 34° 67° (ENE) 06:54:56 437.568
XW-2C 31 Mar 06:54:50 06:58:27 44° 99° (E) 07:02:02 145.795 - 145.815
BEESAT 2 31 Mar 07:01:02 07:05:07 84° 59° (ENE) 07:09:10 435.950
M-CUBED/EXP-1 PRIME 31 Mar 07:10:31 07:13:50 28° 260° (W) 07:17:25 437.505
AO-7 31 Mar 07:28:02 07:32:31 16° 316° (NW) 07:36:59 .
CUTE 1.7 + AOD 2 31 Mar 07:33:30 07:36:07 16° 91° (E) 07:38:43 437.475
NO-84 31 Mar 07:36:47 07:38:28 14° 339° (NNW) 07:40:07 435.350 FM
XW-2F 31 Mar 07:43:04 07:46:39 45° 287° (WNW) 07:50:13 145.980 - 146.000
HO-68 31 Mar 07:51:07 07:57:30 34° 96° (E) 08:03:50 435.675
NUDT-PHONESAT 31 Mar 07:52:54 07:56:23 41° 287° (WNW) 07:59:50 437.300
LilacSat-2 31 Mar 07:54:15 07:57:37 31° 289° (WNW) 08:00:58 437.200
YUBILEINY 31 Mar 07:55:35 08:04:20 90° 264° (W) 08:13:06 435.215
KAITUO 1B 31 Mar 08:07:13 08:10:25 28° 290° (WNW) 08:13:36 145.475/437.950
CUBEBUG 2 31 Mar 08:10:25 08:13:26 18° 92° (E) 08:16:22 437.445
XW-2D 31 Mar 08:13:06 08:15:54 20° 292° (WNW) 08:18:40 145.860 - 145.880
XW-2A 31 Mar 08:14:59 08:18:19 54° 100° (E) 08:21:36 145.665 - 145.685
DOVE 4 31 Mar 08:15:06 08:19:21 25° 295° (WNW) 08:23:31 437.250
XW-2B 31 Mar 08:19:21 08:21:56 18° 293° (WNW) 08:24:31 145.730 - 145.750
AAUSAT CUBESAT 2 31 Mar 08:20:34 08:23:15 17° 92° (E) 08:25:55 437.432
STRAND 1 31 Mar 08:24:57 08:29:29 31° 264° (W) 08:34:03 437.568
CUTE-I 31 Mar 08:25:44 08:30:29 33° 294° (WNW) 08:35:11 437.470
XW-2C 31 Mar 08:30:19 08:32:17 14° 295° (WNW) 08:34:13 145.795 - 145.815
PRISM 31 Mar 08:31:17 08:33:12 13° 62° (ENE) 08:35:08 437.425
PCSat 31 Mar 08:45:24 08:50:37 51° 114° (ESE) 08:55:52 145.827
SEEDS 31 Mar 08:50:54 08:55:06 75° 101° (E) 08:59:19 437.485
UWE-3 31 Mar 09:01:05 09:05:05 39° 98° (E) 09:08:59 435.000/436.395/437.385
CUTE 1.7 + AOD 2 31 Mar 09:08:08 09:12:11 45° 288° (WNW) 09:16:14 437.475
TIGRISAT 31 Mar 09:08:29 09:11:38 18° 64° (ENE) 09:14:44 435.000
Oscar 11 31 Mar 09:12:37 09:16:08 24° 94° (E) 09:19:38 .
UNISAT 6 31 Mar 09:19:35 09:23:21 25° 67° (ENE) 09:27:04 437.425
FO-29 31 Mar 09:26:39 09:33:05 31° 63° (ENE) 09:39:03 435.910
ZACube-1 31 Mar 09:29:38 09:33:41 46° 99° (E) 09:37:40 437.345
HO-68 31 Mar 09:38:33 09:45:24 50° 294° (WNW) 09:52:13 435.675
CUBEBUG 2 31 Mar 09:46:11 09:50:15 40° 289° (WNW) 09:54:11 437.445
AO-73 31 Mar 09:54:45 09:58:57 82° 105° (ESE) 10:03:04 145.935
AAUSAT CUBESAT 2 31 Mar 09:54:58 09:58:54 42° 288° (WNW) 10:02:50 437.432
YUBILEINY 31 Mar 09:56:23 10:02:26 20° 299° (WNW) 10:08:31 435.215
PRISM 31 Mar 10:03:59 10:07:59 59° 259° (W) 10:12:03 437.425
DELFI C3 31 Mar 10:26:08 10:30:00 46° 99° (E) 10:33:51 145.870
SEEDS 31 Mar 10:29:03 10:30:11 11° 299° (WNW) 10:31:19 437.485
PCSat 31 Mar 10:29:39 10:34:16 28° 313° (NW) 10:38:54 145.827
UWE-3 31 Mar 10:38:14 10:41:15 19° 295° (WNW) 10:44:13 435.000/436.395/437.385
TIGRISAT 31 Mar 10:43:21 10:47:55 52° 260° (W) 10:52:27 435.000
Oscar 11 31 Mar 10:48:29 10:52:17 31° 291° (WNW) 10:56:05 .
POLYITAN 1 31 Mar 10:49:48 10:52:40 18° 64° (ENE) 10:55:32 437.675
RS-15 31 Mar 10:52:41 11:02:07 29° 101° (ESE) 11:11:46 29.354- 29.394
NO-84 31 Mar 10:53:46 10:55:41 16° 23° (NNE) 10:57:41 435.350 FM
QB50P2 31 Mar 10:54:19 10:57:31 21° 66° (ENE) 11:00:43 145.880/145.840
UNISAT 6 31 Mar 10:55:33 10:59:51 36° 263° (W) 11:04:09 437.425
DUCHIFAT 1 31 Mar 10:58:23 11:01:16 18° 65° (ENE) 11:04:09 145.980
ZACube-1 31 Mar 11:07:00 11:09:35 16° 296° (WNW) 11:12:09 437.345
FO-29 31 Mar 11:10:07 11:17:44 60° 259° (W) 11:24:47 435.910
AIST 2D 31 Mar 11:28:17 11:31:48 74° 76° (ENE) 11:35:19 435.315
HO-68 31 Mar 11:30:29 11:31:27 10° 315° (NW) 11:32:24 435.675
NANOSAT C BR1 31 Mar 11:45:51 11:50:03 62° 74° (ENE) 11:54:17 145.865
EO-79 31 Mar 11:53:53 11:58:10 83° 74° (ENE) 12:02:28 145.935-145.965
LO-87 31 Mar 11:56:15 11:59:53 61° 101° (E) 12:03:28 145.935 - 145.965
DELFI C3 31 Mar 12:02:05 12:04:25 15° 295° (WNW) 12:06:45 145.870
Oscar 19 31 Mar 12:02:45 12:04:59 13° 58° (ENE) 12:07:12 437.125/150
ESTCUBE 1 31 Mar 12:20:52 12:25:20 57° 101° (E) 12:29:47 437.505/2401.250
POLYITAN 1 31 Mar 12:24:00 12:28:06 45° 261° (W) 12:32:15 437.675
BUGSAT 1 31 Mar 12:26:08 12:30:15 52° 73° (ENE) 12:34:24 437.445
QB50P2 31 Mar 12:29:06 12:33:04 37° 262° (W) 12:37:03 145.880/145.840
NO-84 31 Mar 12:30:30 12:33:33 86° 220° (SW) 12:36:51 435.350 FM
DUCHIFAT 1 31 Mar 12:32:32 12:36:36 44° 261° (W) 12:40:41 145.980
SO-50 31 Mar 12:37:24 12:38:50 11° 108° (ESE) 12:40:16 436.795
AO-7 31 Mar 12:55:28 12:57:51 11° 39° (NE) 13:00:14 .
Gurwin Techsat 1B 31 Mar 12:58:41 13:02:55 25° 63° (ENE) 13:07:09 435.225
UKube-1 31 Mar 12:59:22 13:01:05 12° 90° (E) 13:02:47 .
RS-15 31 Mar 13:01:05 13:13:10 85° 304° (NW) 13:25:39 29.354- 29.394
VELOX 1 31 Mar 13:09:27 13:13:52 56° 101° (E) 13:18:14 145.980
SPROUT 31 Mar 13:12:12 13:16:25 54° 100° (E) 13:20:34 437.525
NANOSAT C BR1 31 Mar 13:24:29 13:26:09 12° 270° (W) 13:27:50 145.865
Oscar 19 31 Mar 13:38:24 13:43:31 90° 193° (SSW) 13:48:42 437.125/150
50 SAT 31 Mar 13:56:16 13:59:43 56° 286° (WNW) 14:03:09 437.505
ESTCUBE 1 31 Mar 13:58:58 14:01:41 16° 297° (WNW) 14:04:24 437.505/2401.250
ITAMSAT 1 31 Mar 14:00:43 14:03:51 16° 59° (ENE) 14:07:00 435.822/435.867
BUGSAT 1 31 Mar 14:03:37 14:05:54 14° 269° (W) 14:08:14 437.445
DX 1 31 Mar 14:04:23 14:08:49 88° 107° (ESE) 14:13:12 434.975-435.025
SO-50 31 Mar 14:13:59 14:18:38 85° 302° (WNW) 14:23:15 436.795
UKube-1 31 Mar 14:33:13 14:37:31 64° 287° (WNW) 14:41:48 .
Gurwin Techsat 1B 31 Mar 14:37:28 14:42:34 47° 261° (W) 14:47:43 435.225
AO-7 31 Mar 14:40:45 14:48:33 47° 61° (ENE) 14:56:20 .
VELOX 1 31 Mar 14:47:09 14:49:51 16° 298° (WNW) 14:52:33 145.980
SPROUT 31 Mar 14:49:25 14:51:53 15° 297° (WNW) 14:54:20 437.525
